This demonstration page uses our WeatherBlox Daily Observations layout. Learn more.

Left ArrowRight Arrow

Hourly Observations for January 12, 2022

Temp ( °F °C ) Dew Point ( °F °C ) Humidity (%) Winds ( mph kmh ) Pressure ( in mb ) Visibility ( mi km ) Precip ( " mm )
12:51 am 00:51 Clear 33 0.6 30 -1.1 89 89 E 6 9 30.33 1027 10 16 0.00 0.00
1:51 am 01:51 Clear 36 2.2 30 -1.1 79 79 SE 7 11 30.31 1026 10 16 0.00 0.00
2:51 am 02:51 Clear 34 1.1 30 -1.1 85 85 W 5 7 30.31 1026 10 16 0.00 0.00
3:51 am 03:51 Clear 32 0 29 -1.7 88 88 NW 6 9 30.32 1027 10 16 0.00 0.00
4:51 am 04:51 Clear 30 -1.1 28 -2.2 92 92 Calm 30.32 1027 10 16 0.00 0.00
5:51 am 05:51 Clear 32 0 29 -1.7 88 88 Calm 30.35 1028 10 16 0.00 0.00
6:51 am 06:51 Clear 28 -2.2 26 -3.3 92 92 SE 5 7 30.39 1029 10 16 0.00 0.00
7:51 am 07:51 Sunny 29 -1.7 27 -2.8 92 92 Calm 30.40 1030 10 16 0.00 0.00
8:51 am 08:51 Sunny 35 1.7 29 -1.7 78 78 Calm 30.41 1030 10 16 0.00 0.00
9:51 am 09:51 Sunny 41 5 30 -1.1 65 65 S 6 9 30.40 1030 10 16 0.00 0.00
10:51 am 10:51 Sunny 49 9.4 29 -1.7 46 46 ESE 9 15 30.39 1029 10 16 0.00 0.00
11:51 am 11:51 Sunny 53 11.7 30 -1.1 41 41 SE 6 9 30.37 1029 10 16 0.00 0.00
12:51 pm 12:51 Sunny 57 13.9 29 -1.7 34 34 E 3 6 30.32 1027 10 16 0.00 0.00
1:51 pm 13:51 Sunny 59 15 27 -2.8 29 29 SSE 3 6 30.27 1025 10 16 0.00 0.00
2:51 pm 14:51 Sunny 60 15.6 26 -3.3 27 27 S 5 7 30.26 1025 10 16 0.00 0.00
3:51 pm 15:51 Sunny 60 15.6 27 -2.8 28 28 ESE 3 6 30.26 1025 10 16 0.00 0.00
4:51 pm 16:51 Sunny 60 15.6 27 -2.8 28 28 WNW 3 6 30.26 1025 10 16 0.00 0.00
5:51 pm 17:51 Clear 51 10.6 28 -2.2 41 41 NW 7 11 30.27 1025 10 16 0.00 0.00
6:51 pm 18:51 Clear 45 7.2 28 -2.2 52 52 N 6 9 30.30 1026 10 16 0.00 0.00
7:51 pm 19:51 Clear 42 5.6 28 -2.2 58 58 NNE 5 7 30.31 1026 10 16 0.00 0.00
8:51 pm 20:51 Clear 41 5 27 -2.8 57 57 SE 5 7 30.32 1027 10 16 0.00 0.00
9:51 pm 21:51 Clear 37 2.8 27 -2.8 67 67 Calm 30.33 1027 10 16 0.00 0.00
10:51 pm 22:51 Clear 35 1.7 27 -2.8 72 72 Calm 30.32 1027 10 16 0.00 0.00
11:51 pm 23:51 Clear 35 1.7 27 -2.8 72 72 Calm 30.32 1027 10 16 0.00 0.00

Powered by AerisWeather